START_TIME,STEP,MOV.,AL01,t_acc.,AL02,t_acc.,E37,t_acc.,H21,t_acc.
1981-08-28 09:00:35.020 ,4,1,0.,24.0,0.,24.0,0.,24.0,0.,24.0
1981-08-28 09:00:59.020 ,3,1,0.,24.0,0.,24.0,0.,24.0,0.,24.0
1981-08-28 09:01:23.020 ,2,1,0.,24.0,0.,24.0,0.,24.0,0.,24.0
1981-08-28 09:01:47.020 ,1,1,0.,24.0,0.,24.0,0.,24.0,0.,24.0
1981-08-28 09:02:11.020 ,0,1,0.,24.0,0.,24.0,0.,24.0,0.,24.0
1981-08-28 09:02:35.020 ,0,1,0.,24.0,0.,24.0,0.,24.0,0.,24.0
1981-08-28 09:02:59.020 ,1,1,0.,24.0,0.,24.0,0.,24.0,0.,24.0
1981-08-28 09:03:23.020 ,2,1,0.,24.0,0.,24.0,1.,24.0,0.,24.0
1981-08-28 09:03:47.020 ,3,1,0.,24.0,0.,24.0,0.,24.0,0.,24.0
1981-08-28 09:04:11.020 ,4,1,0.,24.0,0.,24.0,0.,24.0,0.,24.0
1981-08-28 09:04:35.020 ,5,1,0.,24.0,0.,24.0,0.,24.0,0.,24.0
1981-08-28 09:04:59.020 ,6,1,0.,24.0,0.,24.0,0.,24.0,0.,24.0
1981-08-28 09:05:23.020 ,7,1,4.,24.0,0.,24.0,0.,24.0,0.,24.0
1981-08-28 09:05:47.020 ,7,1,26.,24.0,0.,24.0,0.,24.0,0.,24.0
1981-08-28 09:06:11.020 ,7,0,36.,24.0,0.,24.0,0.,24.0,0.,24.0
1981-08-28 09:06:35.020 ,6,1,26.,24.0,0.,24.0,0.,24.0,0.,24.0
1981-08-28 09:06:59.020 ,6,0,0.,24.0,0.,24.0,0.,24.0,0.,24.0
1981-08-28 09:07:23.020 ,5,1,0.,24.0,0.,24.0,0.,24.0,0.,24.0
1981-08-28 09:07:47.020 ,5,0,0.,24.0,0.,24.0,0.,24.0,0.,24.0
1981-08-28 09:08:11.020 ,4,1,0.,24.0,0.,24.0,0.,24.0,0.,24.0
1981-08-28 09:08:35.020 ,4,0,0.,24.0,0.,24.0,0.,24.0,0.,24.0
1981-08-28 09:08:59.020 ,3,1,0.,24.0,0.,24.0,0.,24.0,0.,24.0
1981-08-28 09:09:23.020 ,3,0,0.,24.0,0.,24.0,2.,24.0,0.,24.0
1981-08-28 09:09:47.020 ,2,1,0.,24.0,0.,24.0,0.,24.0,0.,24.0
1981-08-28 09:10:11.020 ,2,0,0.,24.0,0.,24.0,0.,24.0,0.,24.0
1981-08-28 09:10:35.020 ,1,1,0.,24.0,0.,24.0,0.,24.0,0.,24.0
1981-08-28 09:10:59.020 ,1,0,0.,24.0,0.,24.0,0.,24.0,0.,24.0
1981-08-28 09:11:23.020 ,0,1,0.,24.0,0.,24.0,0.,24.0,0.,24.0
1981-08-28 09:11:47.020 ,0,0,0.,24.0,0.,24.0,0.,24.0,0.,24.0
1981-08-28 09:12:11.020 ,0,1,0.,24.0,0.,24.0,1.,24.0,0.,24.0
1981-08-28 09:12:35.020 ,0,0,0.,24.0,0.,24.0,0.,24.0,0.,24.0
1981-08-28 09:12:59.020 ,1,1,0.,24.0,0.,24.0,0.,24.0,0.,24.0
1981-08-28 09:13:23.020 ,1,0,0.,24.0,0.,24.0,0.,24.0,0.,24.0
1981-08-28 09:13:47.020 ,2,1,0.,24.0,1.,24.0,1.,24.0,0.,24.0
1981-08-28 09:14:11.020 ,2,0,0.,24.0,0.,24.0,0.,24.0,0.,24.0
1981-08-28 09:14:35.020 ,3,1,0.,24.0,0.,24.0,0.,24.0,0.,24.0
1981-08-28 09:14:59.020 ,3,0,0.,24.0,0.,24.0,0.,24.0,0.,24.0
1981-08-28 09:15:23.020 ,4,1,0.,24.0,0.,24.0,0.,24.0,0.,24.0
1981-08-28 09:15:47.020 ,4,0,0.,24.0,0.,24.0,0.,24.0,0.,24.0
1981-08-28 09:16:11.020 ,5,1,0.,24.0,0.,24.0,0.,24.0,0.,24.0
1981-08-28 09:16:35.020 ,5,0,0.,24.0,0.,24.0,1.,24.0,0.,24.0
1981-08-28 09:16:59.020 ,6,1,0.,24.0,0.,24.0,0.,24.0,0.,24.0
1981-08-28 09:17:23.020 ,6,0,0.,24.0,0.,24.0,0.,24.0,0.,24.0
1981-08-28 09:17:47.020 ,7,1,5.,24.0,0.,24.0,0.,24.0,0.,24.0
1981-08-28 09:18:11.020 ,7,0,24.,24.0,0.,24.0,0.,24.0,0.,24.0
1981-08-28 09:18:35.020 ,7,1,28.,24.0,1.,24.0,0.,24.0,0.,24.0
1981-08-28 09:18:59.020 ,6,1,25.,24.0,0.,24.0,0.,24.0,0.,24.0
1981-08-28 09:19:23.020 ,5,1,0.,24.0,0.,24.0,0.,24.0,0.,24.0
1981-08-28 09:19:47.020 ,4,1,0.,24.0,0.,24.0,0.,24.0,0.,24.0
1981-08-28 09:20:11.020 ,3,1,0.,24.0,0.,24.0,0.,24.0,0.,24.0
1981-08-28 09:20:35.020 ,2,1,0.,24.0,0.,24.0,0.,24.0,0.,24.0
1981-08-28 09:20:59.020 ,1,1,0.,24.0,0.,24.0,0.,24.0,0.,24.0
1981-08-28 09:21:23.020 ,0,1,0.,24.0,0.,24.0,0.,24.0,0.,24.0
1981-08-28 09:21:47.020 ,0,1,0.,24.0,0.,24.0,0.,24.0,0.,24.0
1981-08-28 09:22:11.020 ,1,1,0.,24.0,0.,24.0,0.,24.0,0.,24.0
1981-08-28 09:22:35.020 ,2,1,0.,24.0,0.,24.0,0.,24.0,0.,24.0
1981-08-28 09:22:59.020 ,3,1,0.,24.0,0.,24.0,0.,24.0,0.,24.0
1981-08-28 09:23:23.020 ,4,1,0.,24.0,0.,24.0,1.,24.0,0.,24.0
1981-08-28 09:23:47.020 ,5,1,0.,24.0,0.,24.0,0.,24.0,0.,24.0
1981-08-28 09:24:11.020 ,6,1,0.,24.0,0.,24.0,0.,24.0,0.,24.0
1981-08-28 09:24:35.020 ,7,1,7.,24.0,0.,24.0,0.,24.0,0.,24.0
1981-08-28 09:24:59.020 ,7,1,29.,24.0,0.,24.0,0.,24.0,0.,24.0
1981-08-28 09:25:23.020 ,7,0,30.,24.0,0.,24.0,0.,24.0,0.,24.0
1981-08-28 09:25:47.020 ,6,1,20.,24.0,0.,24.0,1.,24.0,0.,24.0
1981-08-28 09:26:11.020 ,6,0,0.,24.0,0.,24.0,0.,24.0,0.,24.0
1981-08-28 09:26:35.020 ,5,1,0.,24.0,0.,24.0,0.,24.0,0.,24.0
1981-08-28 09:26:59.020 ,5,0,0.,24.0,0.,24.0,0.,24.0,0.,24.0
1981-08-28 09:27:23.020 ,4,1,0.,24.0,0.,24.0,0.,24.0,0.,24.0
1981-08-28 09:27:47.020 ,4,0,0.,24.0,0.,24.0,0.,24.0,0.,24.0
1981-08-28 09:28:11.020 ,3,1,0.,24.0,0.,24.0,2.,24.0,0.,24.0
1981-08-28 09:28:35.020 ,3,0,1.,24.0,0.,24.0,0.,24.0,0.,24.0
1981-08-28 09:28:59.020 ,2,1,0.,24.0,0.,24.0,0.,24.0,0.,24.0
1981-08-28 09:29:23.020 ,2,0,0.,24.0,0.,24.0,0.,24.0,0.,24.0
1981-08-28 09:29:47.020 ,1,1,0.,24.0,0.,24.0,0.,24.0,0.,24.0
1981-08-28 09:30:11.020 ,0,0,0.,24.0,0.,24.0,2.,24.0,0.,24.0
1981-08-28 09:30:35.020 ,0,1,0.,24.0,0.,24.0,0.,24.0,0.,24.0
1981-08-28 09:30:59.020 ,0,0,0.,24.0,0.,24.0,0.,24.0,0.,24.0
1981-08-28 09:31:23.020 ,0,1,0.,24.0,0.,24.0,0.,24.0,0.,24.0
1981-08-28 09:31:47.020 ,0,0,0.,24.0,0.,24.0,0.,24.0,0.,24.0
1981-08-28 09:32:11.020 ,1,1,0.,24.0,0.,24.0,0.,24.0,0.,24.0
1981-08-28 09:32:35.020 ,1,0,0.,24.0,0.,24.0,0.,24.0,0.,24.0
1981-08-28 09:32:59.020 ,2,1,0.,24.0,0.,24.0,0.,24.0,0.,24.0
1981-08-28 09:33:23.020 ,2,0,0.,24.0,0.,24.0,1.,24.0,0.,24.0
1981-08-28 09:33:47.020 ,3,1,0.,24.0,0.,24.0,0.,24.0,0.,24.0
1981-08-28 09:34:11.020 ,3,0,0.,24.0,0.,24.0,0.,24.0,0.,24.0
1981-08-28 09:34:35.020 ,4,1,0.,24.0,0.,24.0,1.,24.0,0.,24.0
1981-08-28 09:34:59.020 ,4,0,0.,24.0,0.,24.0,0.,24.0,0.,24.0
1981-08-28 09:35:23.020 ,5,1,0.,24.0,0.,24.0,0.,24.0,0.,24.0
1981-08-28 09:35:47.020 ,5,0,0.,24.0,0.,24.0,0.,24.0,0.,24.0
1981-08-28 09:36:11.020 ,6,1,0.,24.0,1.,24.0,0.,24.0,0.,24.0
1981-08-28 09:36:35.020 ,6,0,0.,24.0,0.,24.0,0.,24.0,0.,24.0
1981-08-28 09:36:59.020 ,7,1,8.,24.0,0.,24.0,0.,24.0,0.,24.0
1981-08-28 09:37:23.020 ,7,0,42.,24.0,0.,24.0,0.,24.0,0.,24.0
1981-08-28 09:37:47.020 ,7,1,22.,24.0,0.,24.0,0.,24.0,0.,24.0
1981-08-28 09:38:11.020 ,6,1,19.,24.0,0.,24.0,1.,24.0,0.,24.0
1981-08-28 09:38:35.020 ,5,1,0.,24.0,0.,24.0,0.,24.0,0.,24.0
1981-08-28 09:38:59.020 ,4,1,0.,24.0,0.,24.0,1.,24.0,0.,24.0
1981-08-28 09:39:23.020 ,3,1,0.,24.0,0.,24.0,0.,24.0,0.,24.0
1981-08-28 09:39:47.020 ,2,1,0.,24.0,0.,24.0,0.,24.0,0.,24.0
1981-08-28 09:40:11.020 ,1,1,0.,24.0,0.,24.0,0.,24.0,0.,24.0
1981-08-28 09:40:35.020 ,0,1,0.,24.0,0.,24.0,1.,24.0,0.,24.0
1981-08-28 09:40:59.020 ,0,1,0.,24.0,0.,24.0,2.,24.0,0.,24.0
1981-08-28 09:41:23.020 ,1,1,0.,24.0,0.,24.0,0.,24.0,0.,24.0
1981-08-28 09:41:47.020 ,2,1,0.,24.0,0.,24.0,0.,24.0,0.,24.0
1981-08-28 09:42:11.020 ,3,1,0.,24.0,0.,24.0,0.,24.0,0.,24.0
1981-08-28 09:42:35.020 ,4,1,0.,24.0,0.,24.0,0.,24.0,0.,24.0
1981-08-28 09:42:59.020 ,5,1,0.,24.0,0.,24.0,0.,24.0,0.,24.0
1981-08-28 09:43:23.020 ,6,1,0.,24.0,0.,24.0,1.,24.0,0.,24.0
1981-08-28 09:43:47.020 ,7,1,13.,24.0,0.,24.0,0.,24.0,0.,24.0
1981-08-28 09:44:11.020 ,7,1,31.,24.0,0.,24.0,0.,24.0,0.,24.0
1981-08-28 09:44:35.020 ,7,0,24.,24.0,0.,24.0,0.,24.0,0.,24.0
1981-08-28 09:44:59.020 ,6,1,25.,24.0,0.,24.0,0.,24.0,0.,24.0
1981-08-28 09:45:23.020 ,6,0,0.,24.0,0.,24.0,1.,24.0,0.,24.0
1981-08-28 09:45:47.020 ,5,1,0.,24.0,0.,24.0,0.,24.0,0.,24.0
1981-08-28 09:46:11.020 ,5,0,0.,24.0,0.,24.0,1.,24.0,0.,24.0
1981-08-28 09:46:35.020 ,4,1,0.,24.0,0.,24.0,0.,24.0,0.,24.0
1981-08-28 09:46:59.020 ,4,0,0.,24.0,0.,24.0,1.,24.0,0.,24.0
1981-08-28 09:47:23.020 ,3,1,0.,24.0,0.,24.0,2.,24.0,0.,24.0
1981-08-28 09:47:47.020 ,3,0,0.,24.0,0.,24.0,0.,24.0,0.,24.0
1981-08-28 09:48:11.020 ,2,1,0.,24.0,0.,24.0,0.,24.0,0.,24.0
1981-08-28 09:48:35.020 ,2,0,0.,24.0,0.,24.0,1.,24.0,0.,24.0
1981-08-28 09:48:59.020 ,1,1,0.,24.0,1.,24.0,0.,24.0,0.,24.0
1981-08-28 09:49:23.020 ,1,0,0.,24.0,0.,24.0,0.,24.0,0.,24.0
1981-08-28 09:49:47.020 ,0,1,0.,24.0,0.,24.0,1.,24.0,0.,24.0
1981-08-28 09:50:11.020 ,0,0,0.,24.0,0.,24.0,0.,24.0,0.,24.0
1981-08-28 09:50:35.020 ,0,1,0.,24.0,0.,24.0,0.,24.0,0.,24.0
1981-08-28 09:50:59.020 ,0,0,0.,24.0,0.,24.0,0.,24.0,0.,24.0
1981-08-28 09:51:23.020 ,1,1,0.,24.0,0.,24.0,0.,24.0,0.,24.0
1981-08-28 09:51:47.020 ,1,0,0.,24.0,0.,24.0,1.,24.0,0.,24.0
1981-08-28 09:52:11.020 ,2,1,0.,24.0,0.,24.0,0.,24.0,0.,24.0
1981-08-28 09:52:35.020 ,2,0,0.,24.0,0.,24.0,1.,24.0,0.,24.0
1981-08-28 09:52:59.020 ,3,1,0.,24.0,0.,24.0,0.,24.0,0.,24.0
1981-08-28 09:53:23.020 ,3,0,0.,24.0,0.,24.0,0.,24.0,0.,24.0
1981-08-28 09:53:47.020 ,4,1,0.,24.0,0.,24.0,0.,24.0,0.,24.0
1981-08-28 09:54:11.020 ,4,0,0.,24.0,0.,24.0,0.,24.0,0.,24.0
1981-08-28 09:54:35.020 ,5,1,0.,24.0,0.,24.0,1.,24.0,0.,24.0
1981-08-28 09:54:59.020 ,5,0,0.,24.0,0.,24.0,0.,24.0,0.,24.0
1981-08-28 09:55:23.020 ,6,1,0.,24.0,0.,24.0,1.,24.0,0.,24.0
1981-08-28 09:55:47.020 ,6,0,1.,24.0,1.,24.0,0.,24.0,0.,24.0
1981-08-28 09:56:11.020 ,7,1,8.,24.0,0.,24.0,0.,24.0,0.,24.0
1981-08-28 09:56:35.020 ,7,0,28.,24.0,0.,24.0,0.,24.0,0.,24.0
1981-08-28 09:56:59.020 ,7,1,26.,24.0,0.,24.0,0.,24.0,0.,24.0
1981-08-28 09:57:23.020 ,6,1,24.,24.0,0.,24.0,0.,24.0,0.,24.0
1981-08-28 09:57:47.020 ,5,1,0.,24.0,0.,24.0,1.,24.0,0.,24.0
1981-08-28 09:58:11.020 ,4,1,0.,24.0,0.,24.0,0.,24.0,0.,24.0
1981-08-28 09:58:35.020 ,3,1,0.,24.0,0.,24.0,1.,24.0,0.,24.0
1981-08-28 09:58:59.020 ,2,1,0.,24.0,0.,24.0,1.,24.0,0.,24.0
1981-08-28 09:59:23.020 ,1,1,0.,24.0,0.,24.0,0.,24.0,0.,24.0
1981-08-28 09:59:47.020 ,0,1,0.,24.0,0.,24.0,0.,24.0,0.,24.0
1981-08-28 10:00:11.020 ,0,1,0.,24.0,0.,24.0,0.,24.0,0.,24.0
1981-08-28 10:00:35.020 ,1,1,0.,24.0,0.,24.0,0.,24.0,0.,24.0
1981-08-28 10:00:59.020 ,2,1,1.,24.0,0.,24.0,0.,24.0,0.,24.0
1981-08-28 10:01:23.020 ,3,1,0.,24.0,0.,24.0,0.,24.0,0.,24.0
1981-08-28 10:01:47.020 ,4,1,0.,24.0,0.,24.0,1.,24.0,0.,24.0
1981-08-28 10:02:11.020 ,5,1,0.,24.0,0.,24.0,0.,24.0,0.,24.0
1981-08-28 10:02:35.020 ,6,1,0.,24.0,0.,24.0,0.,24.0,0.,24.0
1981-08-28 10:02:59.020 ,7,1,1.,24.0,0.,24.0,0.,24.0,0.,24.0
1981-08-28 10:03:23.010 ,7,1,31.,24.0,0.,24.0,0.,24.0,0.,24.0
1981-08-28 10:03:47.010 ,7,0,37.,24.0,0.,24.0,0.,24.0,0.,24.0
1981-08-28 10:04:11.010 ,6,1,26.,24.0,0.,24.0,0.,24.0,0.,24.0
1981-08-28 10:04:35.020 ,6,0,0.,24.0,1.,24.0,0.,24.0,0.,24.0
1981-08-28 10:04:59.020 ,5,1,1.,24.0,0.,24.0,1.,24.0,0.,24.0
1981-08-28 10:05:23.020 ,5,0,0.,24.0,0.,24.0,0.,24.0,0.,24.0
1981-08-28 10:05:47.020 ,4,1,0.,24.0,0.,24.0,2.,24.0,0.,24.0
1981-08-28 10:06:11.010 ,4,0,0.,24.0,0.,24.0,0.,24.0,0.,24.0
1981-08-28 10:06:35.020 ,3,1,0.,24.0,0.,24.0,0.,24.0,0.,24.0
1981-08-28 10:06:59.020 ,3,0,0.,24.0,0.,24.0,1.,24.0,0.,24.0
1981-08-28 10:07:23.020 ,2,1,0.,24.0,0.,24.0,0.,24.0,0.,24.0
1981-08-28 10:07:47.020 ,2,0,0.,24.0,0.,24.0,0.,24.0,0.,24.0
1981-08-28 10:08:11.010 ,1,1,0.,24.0,0.,24.0,0.,24.0,0.,24.0
1981-08-28 10:08:35.020 ,1,0,0.,24.0,0.,24.0,0.,24.0,0.,24.0
1981-08-28 10:08:59.020 ,0,1,0.,24.0,0.,24.0,0.,24.0,0.,24.0
1981-08-28 10:09:23.020 ,0,0,0.,24.0,0.,24.0,0.,24.0,0.,24.0
1981-08-28 10:09:47.020 ,0,1,0.,24.0,0.,24.0,1.,24.0,0.,24.0
1981-08-28 10:10:11.020 ,0,0,0.,24.0,0.,24.0,0.,24.0,0.,24.0
1981-08-28 10:10:35.020 ,1,1,0.,24.0,0.,24.0,0.,24.0,0.,24.0
1981-08-28 10:10:59.020 ,1,0,0.,24.0,0.,24.0,0.,24.0,0.,24.0
1981-08-28 10:11:23.020 ,2,1,1.,24.0,0.,24.0,1.,24.0,0.,24.0
1981-08-28 10:11:47.020 ,2,0,0.,24.0,0.,24.0,0.,24.0,0.,24.0
1981-08-28 10:12:11.020 ,3,1,0.,24.0,0.,24.0,0.,24.0,0.,24.0
1981-08-28 10:12:35.020 ,3,0,0.,24.0,0.,24.0,0.,24.0,0.,24.0
1981-08-28 10:12:59.020 ,4,1,0.,24.0,0.,24.0,0.,24.0,0.,24.0
1981-08-28 10:13:23.020 ,4,0,0.,24.0,0.,24.0,0.,24.0,0.,24.0
1981-08-28 10:13:47.020 ,5,1,0.,24.0,0.,24.0,1.,24.0,0.,24.0
1981-08-28 10:14:11.020 ,5,0,0.,24.0,0.,24.0,0.,24.0,0.,24.0
1981-08-28 10:14:35.020 ,6,1,0.,24.0,0.,24.0,0.,24.0,0.,24.0
1981-08-28 10:14:59.020 ,6,0,0.,24.0,0.,24.0,0.,24.0,0.,24.0
1981-08-28 10:15:23.020 ,7,1,9.,24.0,0.,24.0,0.,24.0,0.,24.0
1981-08-28 10:15:47.020 ,7,0,29.,24.0,0.,24.0,0.,24.0,0.,24.0
1981-08-28 10:16:11.020 ,7,1,29.,24.0,0.,24.0,1.,24.0,0.,24.0
1981-08-28 10:16:35.020 ,6,1,32.,24.0,0.,24.0,0.,24.0,0.,24.0
1981-08-28 10:16:59.020 ,5,1,0.,24.0,0.,24.0,0.,24.0,0.,24.0
1981-08-28 10:17:23.020 ,4,1,1.,24.0,0.,24.0,0.,24.0,0.,24.0
1981-08-28 10:17:47.020 ,3,1,0.,24.0,0.,24.0,0.,24.0,0.,24.0
1981-08-28 10:18:11.020 ,2,1,0.,24.0,0.,24.0,0.,24.0,0.,24.0
1981-08-28 10:18:35.020 ,1,1,0.,24.0,0.,24.0,0.,24.0,0.,24.0
1981-08-28 10:18:59.020 ,0,1,1.,24.0,0.,24.0,0.,24.0,0.,24.0
1981-08-28 10:19:23.020 ,0,1,0.,24.0,0.,24.0,0.,24.0,0.,24.0
1981-08-28 10:19:47.020 ,1,1,0.,24.0,0.,24.0,1.,24.0,0.,24.0
1981-08-28 10:20:11.010 ,2,1,0.,24.0,0.,24.0,0.,24.0,0.,24.0
1981-08-28 10:20:35.010 ,3,1,0.,24.0,0.,24.0,0.,24.0,0.,24.0
1981-08-28 10:20:59.010 ,4,1,0.,24.0,0.,24.0,0.,24.0,0.,24.0
1981-08-28 10:21:23.010 ,5,1,1.,24.0,0.,24.0,2.,24.0,0.,24.0
1981-08-28 10:21:47.010 ,6,1,0.,24.0,0.,24.0,0.,24.0,0.,24.0
1981-08-28 10:22:11.010 ,7,1,5.,24.0,0.,24.0,1.,24.0,0.,24.0
1981-08-28 10:22:35.010 ,7,1,32.,24.0,0.,24.0,0.,24.0,0.,24.0
1981-08-28 10:22:59.010 ,7,0,28.,24.0,0.,24.0,0.,24.0,0.,24.0
1981-08-28 10:23:23.010 ,6,1,23.,24.0,0.,24.0,0.,24.0,0.,24.0
1981-08-28 10:23:47.010 ,6,0,0.,24.0,0.,24.0,0.,24.0,0.,24.0
1981-08-28 10:24:11.010 ,5,1,0.,24.0,1.,24.0,0.,24.0,0.,24.0
1981-08-28 10:24:35.010 ,5,0,0.,24.0,0.,24.0,1.,24.0,0.,24.0
1981-08-28 10:24:59.010 ,4,1,0.,24.0,0.,24.0,0.,24.0,0.,24.0
1981-08-28 10:25:23.010 ,4,0,0.,24.0,0.,24.0,0.,24.0,0.,24.0
1981-08-28 10:25:47.010 ,3,1,0.,24.0,0.,24.0,0.,24.0,0.,24.0
1981-08-28 10:26:11.010 ,3,0,0.,24.0,0.,24.0,0.,24.0,0.,24.0
1981-08-28 10:26:35.010 ,2,1,0.,24.0,0.,24.0,1.,24.0,0.,24.0
1981-08-28 10:26:59.010 ,2,0,0.,24.0,0.,24.0,1.,24.0,0.,24.0
1981-08-28 10:27:23.010 ,1,1,0.,24.0,0.,24.0,0.,24.0,0.,24.0
1981-08-28 10:27:47.010 ,1,0,0.,24.0,0.,24.0,0.,24.0,0.,24.0
1981-08-28 10:28:11.010 ,0,1,0.,24.0,0.,24.0,0.,24.0,0.,24.0
1981-08-28 10:28:35.010 ,0,0,0.,24.0,0.,24.0,1.,24.0,0.,24.0
1981-08-28 10:28:59.010 ,0,1,0.,24.0,0.,24.0,1.,24.0,0.,24.0
1981-08-28 10:29:23.010 ,0,0,0.,24.0,0.,24.0,0.,24.0,0.,24.0
1981-08-28 10:29:47.010 ,1,1,0.,24.0,0.,24.0,3.,24.0,0.,24.0
1981-08-28 10:30:11.010 ,1,0,0.,24.0,0.,24.0,1.,24.0,0.,24.0
1981-08-28 10:30:35.010 ,2,1,0.,24.0,0.,24.0,0.,24.0,0.,24.0
1981-08-28 10:30:59.010 ,2,0,0.,24.0,0.,24.0,0.,24.0,0.,24.0
1981-08-28 10:31:23.010 ,3,1,0.,24.0,0.,24.0,0.,24.0,0.,24.0
1981-08-28 10:31:47.010 ,3,0,0.,24.0,0.,24.0,1.,24.0,0.,24.0
1981-08-28 10:32:11.010 ,4,1,0.,24.0,0.,24.0,1.,24.0,0.,24.0
1981-08-28 10:32:35.010 ,4,0,0.,24.0,0.,24.0,1.,24.0,0.,24.0
1981-08-28 10:32:59.010 ,5,1,0.,24.0,0.,24.0,0.,24.0,0.,24.0
1981-08-28 10:33:23.010 ,5,0,0.,24.0,0.,24.0,2.,24.0,0.,24.0
1981-08-28 10:33:47.010 ,6,1,0.,24.0,0.,24.0,0.,24.0,0.,24.0
1981-08-28 10:34:11.010 ,6,0,0.,24.0,0.,24.0,0.,24.0,0.,24.0
1981-08-28 10:34:35.010 ,7,1,7.,24.0,0.,24.0,0.,24.0,0.,24.0
1981-08-28 10:34:59.010 ,7,0,36.,24.0,0.,24.0,0.,24.0,0.,24.0
1981-08-28 10:35:23.010 ,7,1,32.,24.0,0.,24.0,0.,24.0,0.,24.0
1981-08-28 10:35:47.010 ,6,1,25.,24.0,0.,24.0,0.,24.0,0.,24.0
1981-08-28 10:36:11.010 ,5,1,0.,24.0,1.,24.0,0.,24.0,0.,24.0
1981-08-28 10:36:35.010 ,4,1,0.,24.0,0.,24.0,0.,24.0,0.,24.0
1981-08-28 10:36:59.010 ,3,1,0.,24.0,0.,24.0,0.,24.0,0.,24.0
1981-08-28 10:37:23.010 ,2,1,1.,24.0,0.,24.0,0.,24.0,0.,24.0
1981-08-28 10:37:47.010 ,1,1,0.,24.0,0.,24.0,0.,24.0,0.,24.0
1981-08-28 10:38:11.010 ,0,1,0.,24.0,0.,24.0,0.,24.0,0.,24.0
1981-08-28 10:38:35.010 ,0,1,0.,24.0,0.,24.0,0.,24.0,0.,24.0
1981-08-28 10:38:59.010 ,1,1,0.,24.0,0.,24.0,1.,24.0,0.,24.0
1981-08-28 10:39:23.010 ,2,1,0.,24.0,0.,24.0,0.,24.0,0.,24.0
1981-08-28 10:39:47.010 ,3,1,0.,24.0,0.,24.0,0.,24.0,0.,24.0
1981-08-28 10:40:11.010 ,4,1,0.,24.0,0.,24.0,0.,24.0,0.,24.0
1981-08-28 10:40:35.010 ,5,1,0.,24.0,0.,24.0,1.,24.0,0.,24.0
1981-08-28 10:40:59.010 ,6,1,0.,24.0,0.,24.0,0.,24.0,0.,24.0
1981-08-28 10:41:23.010 ,7,1,10.,24.0,0.,24.0,0.,24.0,0.,24.0
1981-08-28 10:41:47.010 ,7,1,37.,24.0,0.,24.0,0.,24.0,0.,24.0
1981-08-28 10:42:11.010 ,7,0,27.,24.0,0.,24.0,0.,24.0,0.,24.0
1981-08-28 10:42:35.010 ,6,1,17.,24.0,0.,24.0,0.,24.0,0.,24.0
1981-08-28 10:42:59.010 ,6,0,0.,24.0,0.,24.0,0.,24.0,0.,24.0
1981-08-28 10:43:23.010 ,5,1,0.,24.0,0.,24.0,1.,24.0,0.,24.0
1981-08-28 10:43:47.010 ,5,0,0.,24.0,0.,24.0,0.,24.0,0.,24.0
1981-08-28 10:44:11.010 ,4,1,0.,24.0,0.,24.0,0.,24.0,0.,24.0
1981-08-28 10:44:35.010 ,4,0,0.,24.0,0.,24.0,1.,24.0,0.,24.0
1981-08-28 10:44:59.010 ,3,1,0.,24.0,0.,24.0,0.,24.0,0.,24.0
1981-08-28 10:45:23.010 ,3,0,0.,24.0,0.,24.0,1.,24.0,0.,24.0
1981-08-28 10:45:47.010 ,2,1,0.,24.0,0.,24.0,0.,24.0,0.,24.0
1981-08-28 10:46:11.010 ,2,0,0.,24.0,0.,24.0,1.,24.0,0.,24.0
1981-08-28 10:46:35.010 ,1,1,0.,24.0,0.,24.0,0.,24.0,0.,24.0
1981-08-28 10:46:59.010 ,1,0,0.,24.0,0.,24.0,0.,24.0,0.,24.0
1981-08-28 10:47:23.010 ,0,1,0.,24.0,0.,24.0,0.,24.0,0.,24.0
1981-08-28 10:47:47.010 ,0,0,0.,24.0,0.,24.0,1.,24.0,0.,24.0
1981-08-28 10:48:11.010 ,0,1,0.,24.0,0.,24.0,0.,24.0,0.,24.0
1981-08-28 10:48:35.010 ,0,0,0.,24.0,0.,24.0,0.,24.0,0.,24.0
1981-08-28 10:48:59.010 ,1,1,0.,24.0,0.,24.0,0.,24.0,0.,24.0
1981-08-28 10:49:23.010 ,1,0,0.,24.0,0.,24.0,0.,24.0,0.,24.0
1981-08-28 10:49:47.010 ,2,1,0.,24.0,0.,24.0,0.,24.0,0.,24.0
1981-08-28 10:50:11.010 ,2,0,0.,24.0,0.,24.0,0.,24.0,0.,24.0
1981-08-28 10:50:35.010 ,3,1,0.,24.0,0.,24.0,0.,24.0,0.,24.0
1981-08-28 10:50:59.010 ,3,0,0.,24.0,0.,24.0,1.,24.0,0.,24.0
1981-08-28 10:51:23.010 ,4,1,0.,24.0,0.,24.0,0.,24.0,0.,24.0
1981-08-28 10:51:47.010 ,4,0,0.,24.0,0.,24.0,0.,24.0,0.,24.0
1981-08-28 10:52:11.010 ,5,1,0.,24.0,0.,24.0,0.,24.0,0.,24.0
1981-08-28 10:52:35.010 ,5,0,0.,24.0,0.,24.0,0.,24.0,0.,24.0
1981-08-28 10:52:59.010 ,6,1,0.,24.0,0.,24.0,1.,24.0,0.,24.0
1981-08-28 10:53:23.010 ,6,0,0.,24.0,0.,24.0,0.,24.0,0.,24.0
1981-08-28 10:53:47.010 ,7,1,10.,24.0,0.,24.0,0.,24.0,0.,24.0
1981-08-28 10:54:11.010 ,7,0,33.,24.0,0.,24.0,0.,24.0,0.,24.0
1981-08-28 10:54:35.010 ,7,1,32.,24.0,0.,24.0,0.,24.0,0.,24.0
1981-08-28 10:54:59.010 ,6,1,24.,24.0,0.,24.0,0.,24.0,0.,24.0
1981-08-28 10:55:23.010 ,5,1,0.,24.0,0.,24.0,1.,24.0,0.,24.0
1981-08-28 10:55:47.010 ,4,1,0.,24.0,0.,24.0,0.,24.0,0.,24.0
1981-08-28 10:56:11.010 ,3,1,0.,24.0,0.,24.0,0.,24.0,0.,24.0
1981-08-28 10:56:35.010 ,2,1,0.,24.0,0.,24.0,1.,24.0,0.,24.0
1981-08-28 10:56:59.010 ,1,1,0.,24.0,0.,24.0,0.,24.0,0.,24.0
1981-08-28 10:57:23.010 ,0,1,0.,24.0,0.,24.0,1.,24.0,0.,24.0
1981-08-28 10:57:47.010 ,0,1,0.,24.0,0.,24.0,0.,24.0,0.,24.0
1981-08-28 10:58:11.010 ,1,1,0.,24.0,0.,24.0,0.,24.0,0.,24.0
1981-08-28 10:58:35.010 ,2,1,0.,24.0,0.,24.0,0.,24.0,0.,24.0
1981-08-28 10:58:59.010 ,3,1,0.,24.0,0.,24.0,0.,24.0,0.,24.0
1981-08-28 10:59:23.010 ,4,1,0.,24.0,0.,24.0,0.,24.0,0.,24.0
1981-08-28 10:59:47.010 ,5,1,0.,24.0,0.,24.0,0.,24.0,0.,24.0
1981-08-28 11:00:11.010 ,6,1,0.,24.0,0.,24.0,0.,24.0,0.,24.0
1981-08-28 11:00:35.010 ,7,1,7.,24.0,0.,24.0,1.,24.0,0.,24.0
1981-08-28 11:00:59.010 ,7,1,40.,24.0,0.,24.0,1.,24.0,0.,24.0
1981-08-28 11:01:23.010 ,7,0,39.,24.0,1.,24.0,0.,24.0,0.,24.0
1981-08-28 11:01:47.010 ,6,1,24.,24.0,0.,24.0,2.,24.0,0.,24.0
1981-08-28 11:02:11.010 ,6,0,0.,24.0,0.,24.0,0.,24.0,0.,24.0
1981-08-28 11:02:35.010 ,5,1,0.,24.0,0.,24.0,1.,24.0,0.,24.0
1981-08-28 11:02:59.010 ,5,0,0.,24.0,0.,24.0,0.,24.0,0.,24.0
1981-08-28 11:03:23.010 ,4,1,0.,24.0,0.,24.0,0.,24.0,0.,24.0
1981-08-28 11:03:47.010 ,4,0,0.,24.0,0.,24.0,1.,24.0,0.,24.0
1981-08-28 11:04:11.010 ,3,1,0.,24.0,0.,24.0,0.,24.0,0.,24.0
1981-08-28 11:04:35.010 ,3,0,0.,24.0,0.,24.0,1.,24.0,0.,24.0
1981-08-28 11:04:59.010 ,2,1,0.,24.0,0.,24.0,0.,24.0,0.,24.0
1981-08-28 11:05:23.010 ,2,0,0.,24.0,0.,24.0,0.,24.0,0.,24.0
1981-08-28 11:05:47.010 ,1,1,1.,24.0,0.,24.0,0.,24.0,0.,24.0
1981-08-28 11:06:11.010 ,1,0,0.,24.0,0.,24.0,1.,24.0,0.,24.0
1981-08-28 11:06:35.010 ,0,1,0.,24.0,0.,24.0,0.,24.0,0.,24.0
1981-08-28 11:06:59.010 ,0,0,0.,24.0,0.,24.0,1.,24.0,0.,24.0
1981-08-28 11:07:23.010 ,0,1,0.,24.0,0.,24.0,0.,24.0,0.,24.0
1981-08-28 11:07:47.010 ,0,0,0.,24.0,0.,24.0,0.,24.0,0.,24.0
1981-08-28 11:08:11.010 ,1,1,0.,24.0,0.,24.0,1.,24.0,0.,24.0
1981-08-28 11:08:35.010 ,1,0,0.,24.0,0.,24.0,0.,24.0,0.,24.0
1981-08-28 11:08:59.010 ,2,1,0.,24.0,0.,24.0,0.,24.0,0.,24.0
1981-08-28 11:09:23.010 ,2,0,0.,24.0,0.,24.0,0.,24.0,0.,24.0
1981-08-28 11:09:47.010 ,3,1,0.,24.0,0.,24.0,0.,24.0,0.,24.0
1981-08-28 11:10:11.010 ,3,0,0.,24.0,0.,24.0,0.,24.0,0.,24.0
1981-08-28 11:10:35.010 ,4,1,0.,24.0,0.,24.0,0.,24.0,0.,24.0
1981-08-28 11:10:59.010 ,4,0,0.,24.0,0.,24.0,0.,24.0,0.,24.0
1981-08-28 11:11:23.010 ,5,1,0.,24.0,0.,24.0,1.,24.0,0.,24.0
1981-08-28 11:11:47.010 ,5,0,0.,24.0,0.,24.0,0.,24.0,0.,24.0
1981-08-28 11:12:11.010 ,6,1,1.,24.0,0.,24.0,0.,24.0,0.,24.0
1981-08-28 11:12:35.010 ,6,0,0.,24.0,0.,24.0,1.,24.0,0.,24.0
1981-08-28 11:12:59.010 ,7,1,12.,24.0,0.,24.0,0.,24.0,0.,24.0
1981-08-28 11:13:23.010 ,7,0,40.,24.0,0.,24.0,1.,24.0,0.,24.0
1981-08-28 11:13:47.010 ,7,1,27.,24.0,0.,24.0,0.,24.0,0.,24.0
1981-08-28 11:14:11.010 ,6,1,25.,24.0,0.,24.0,0.,24.0,0.,24.0
1981-08-28 11:14:35.010 ,5,1,0.,24.0,0.,24.0,0.,24.0,0.,24.0
1981-08-28 11:14:59.010 ,4,1,1.,24.0,0.,24.0,0.,24.0,0.,24.0
1981-08-28 11:15:23.010 ,3,1,0.,24.0,0.,24.0,0.,24.0,0.,24.0
1981-08-28 11:15:47.010 ,2,1,0.,24.0,0.,24.0,0.,24.0,0.,24.0
1981-08-28 11:16:11.010 ,1,1,0.,24.0,0.,24.0,0.,24.0,0.,24.0
1981-08-28 11:16:35.010 ,0,1,0.,24.0,0.,24.0,0.,24.0,0.,24.0
1981-08-28 11:16:59.010 ,0,1,0.,24.0,0.,24.0,0.,24.0,0.,24.0
1981-08-28 11:17:23.010 ,1,1,0.,24.0,1.,24.0,0.,24.0,0.,24.0
1981-08-28 11:17:47.010 ,2,1,0.,24.0,0.,24.0,0.,24.0,0.,24.0
1981-08-28 11:18:11.010 ,3,1,0.,24.0,0.,24.0,0.,24.0,0.,24.0
1981-08-28 11:18:35.010 ,4,1,0.,24.0,0.,24.0,0.,24.0,0.,24.0
1981-08-28 11:18:59.010 ,5,1,0.,24.0,0.,24.0,0.,24.0,0.,24.0
1981-08-28 11:19:23.010 ,6,1,0.,24.0,0.,24.0,0.,24.0,0.,24.0
1981-08-28 11:19:47.010 ,7,1,6.,24.0,0.,24.0,0.,24.0,0.,24.0
1981-08-28 11:20:11.010 ,7,1,27.,24.0,0.,24.0,0.,24.0,0.,24.0
1981-08-28 11:20:35.010 ,7,0,20.,24.0,0.,24.0,0.,24.0,0.,24.0
1981-08-28 11:20:59.010 ,6,1,24.,24.0,0.,24.0,0.,24.0,0.,24.0
1981-08-28 11:21:23.010 ,6,0,0.,24.0,0.,24.0,0.,24.0,0.,24.0
1981-08-28 11:21:47.010 ,5,1,0.,24.0,0.,24.0,0.,24.0,0.,24.0
1981-08-28 11:22:11.010 ,5,0,0.,24.0,0.,24.0,0.,24.0,0.,24.0
1981-08-28 11:22:35.010 ,4,1,0.,24.0,0.,24.0,0.,24.0,0.,24.0
1981-08-28 11:22:59.010 ,4,0,0.,24.0,0.,24.0,0.,24.0,0.,24.0
1981-08-28 11:23:23.010 ,3,1,0.,24.0,0.,24.0,0.,24.0,0.,24.0
1981-08-28 11:23:47.010 ,3,0,0.,24.0,0.,24.0,1.,24.0,0.,24.0
1981-08-28 11:24:11.010 ,2,1,0.,24.0,0.,24.0,0.,24.0,0.,24.0
1981-08-28 11:24:35.010 ,2,0,0.,24.0,0.,24.0,0.,24.0,0.,24.0
1981-08-28 11:24:59.010 ,1,1,0.,24.0,0.,24.0,1.,24.0,0.,24.0
1981-08-28 11:25:23.010 ,1,0,0.,24.0,1.,24.0,0.,24.0,0.,24.0
1981-08-28 11:25:47.010 ,0,1,0.,24.0,0.,24.0,0.,24.0,0.,24.0
1981-08-28 11:26:11.010 ,0,0,0.,24.0,0.,24.0,1.,24.0,0.,24.0
1981-08-28 11:26:35.010 ,0,1,0.,24.0,0.,24.0,0.,24.0,0.,24.0
1981-08-28 11:26:59.010 ,0,0,0.,24.0,0.,24.0,1.,24.0,0.,24.0
1981-08-28 11:27:23.010 ,1,1,0.,24.0,0.,24.0,1.,24.0,0.,24.0
1981-08-28 11:27:47.010 ,1,0,0.,24.0,0.,24.0,0.,24.0,0.,24.0
1981-08-28 11:28:11.010 ,2,1,0.,24.0,0.,24.0,0.,24.0,0.,24.0
1981-08-28 11:28:35.010 ,2,0,0.,24.0,0.,24.0,0.,24.0,0.,24.0
1981-08-28 11:28:59.010 ,3,1,0.,24.0,0.,24.0,0.,24.0,0.,24.0
1981-08-28 11:29:23.010 ,3,0,0.,24.0,0.,24.0,1.,24.0,0.,24.0
1981-08-28 11:30:35.010 ,0,0,0.,24.0,0.,24.0,0.,24.0,0.,24.0
1981-08-28 11:30:59.010 ,0,0,0.,24.0,0.,24.0,0.,24.0,0.,24.0
1981-08-28 11:31:23.010 ,6,1,0.,24.0,0.,24.0,0.,24.0,0.,24.0
1981-08-28 11:31:47.010 ,6,0,0.,24.0,0.,24.0,1.,24.0,0.,24.0
1981-08-28 11:32:11.010 ,7,1,7.,24.0,0.,24.0,0.,24.0,0.,24.0
1981-08-28 11:32:35.010 ,7,0,26.,24.0,0.,24.0,0.,24.0,0.,24.0
1981-08-28 11:32:59.010 ,7,1,29.,24.0,0.,24.0,1.,24.0,0.,24.0
1981-08-28 11:33:23.010 ,6,1,29.,24.0,0.,24.0,0.,24.0,0.,24.0
1981-08-28 11:33:47.010 ,5,1,0.,24.0,0.,24.0,0.,24.0,0.,24.0
1981-08-28 11:34:11.010 ,4,1,0.,24.0,0.,24.0,1.,24.0,0.,24.0
1981-08-28 11:34:35.010 ,3,1,0.,24.0,0.,24.0,1.,24.0,0.,24.0
1981-08-28 11:34:59.010 ,2,1,0.,24.0,0.,24.0,0.,24.0,0.,24.0